| time (UTC) | temp F | wind direction | speed knots | gust knots | rain 1hr in | rain 24hr in | rain mn in | humidity % | barometer mb |
| 20260904210054 | 76 | 111 | 1.7 | 8.7 | 0.45 | 0.99 | 0.51 | 94 | 1013.8 |
| 20260904205524 | 76 | 126 | 2.6 | 8.7 | 0.45 | 0.99 | 0.51 | 94 | 1013.8 |
| 20260904205025 | 76 | 122 | 5.2 | 8.7 | 0.43 | 0.97 | 0.49 | 94 | 1013.9 |
| 20260904204548 | 77 | 96 | 2.6 | 5.2 | 0.36 | 0.88 | 0.40 | 94 | 1013.8 |
| 20260904204026 | 77 | 85 | 1.7 | 5.2 | 0.35 | 0.87 | 0.39 | 94 | 1013.8 |
| 20260904203525 | 77 | 74 | 0.9 | 7.0 | 0.36 | 0.87 | 0.39 | 93 | 1014.0 |
| 20260904203051 | 77 | 5 | 0.9 | 7.0 | 0.34 | 0.85 | 0.37 | 93 | 1013.8 |
| 20260904202522 | 77 | 36 | 2.6 | 7.8 | 0.31 | 0.82 | 0.34 | 92 | 1013.4 |
| 20260904202027 | 77 | 163 | 0.9 | 10.4 | 0.09 | 0.60 | 0.12 | 92 | 1013.5 |
| 20260904201544 | 77 | 153 | 4.3 | 10.4 | 0.06 | 0.57 | 0.09 | 91 | 1013.5 |
| 20260904201024 | 78 | 159 | 4.3 | 10.4 | 0.04 | 0.55 | 0.07 | 92 | 1013.1 |
| 20260904200524 | 78 | 159 | 1.7 | 10.4 | 0.04 | 0.55 | 0.07 | 90 | 1012.9 |
| 20260904200106 | 78 | 217 | 3.5 | 9.6 | 0.03 | 0.54 | 0.06 | 88 | 1013.4 |
| 20260904195523 | 79 | 189 | 3.5 | 9.6 | 0.03 | 0.54 | 0.06 | 88 | 1013.4 |
| 20260904195027 | 80 | 142 | 3.5 | 12.2 | 0.03 | 0.54 | 0.06 | 90 | 1013.3 |
| 20260904194545 | 81 | 246 | 3.5 | 12.2 | 0.01 | 0.52 | 0.04 | 88 | 1012.9 |
| 20260904194023 | 82 | 251 | 7.8 | 12.2 | 0.00 | 0.51 | 0.03 | 84 | 1013.1 |
| 20260904193526 | 84 | 267 | 4.3 | 8.7 | 0.00 | 0.51 | 0.03 | 83 | 1013.4 |
| 20260904193041 | 84 | 259 | 4.3 | 7.0 | 0.00 | 0.51 | 0.03 | 84 | 1013.5 |
| 20260904192523 | 85 | 265 | 3.5 | 8.7 | 0.00 | 0.51 | 0.03 | 84 | 1013.3 |
| 20260904192023 | 85 | 265 | 4.3 | 13.0 | 0.00 | 0.51 | 0.03 | 82 | 1013.2 |
| 20260904191547 | 85 | 280 | 7.8 | 13.0 | 0.00 | 0.51 | 0.03 | 81 | 1013.4 |
| 20260904191021 | 86 | 288 | 8.7 | 12.2 | 0.00 | 0.51 | 0.03 | 81 | 1013.4 |
| 20260904190524 | 87 | 284 | 7.8 | 12.2 | 0.00 | 0.51 | 0.03 | 78 | 1013.3 |
| 20260904190050 | 88 | 267 | 1.7 | 7.0 | 0.03 | 0.51 | 0.03 | 76 | 1013.4 |
| 20260904185525 | 89 | 253 | 2.6 | 7.0 | 0.03 | 0.51 | 0.03 | 73 | 1013.5 |
| 20260904185021 | 90 | 117 | 0.0 | 7.0 | 0.03 | 0.51 | 0.03 | 77 | 1013.5 |
| 20260904184542 | 89 | 265 | 1.7 | 5.2 | 0.03 | 0.51 | 0.03 | 78 | 1013.5 |
| 20260904184020 | 89 | 70 | 0.9 | 3.5 | 0.03 | 0.51 | 0.03 | 81 | 1013.6 |
| 20260904183519 | 89 | 0 | 1.7 | 3.5 | 0.03 | 0.51 | 0.03 | 82 | 1013.7 |
| 20260904183042 | 88 | 89 | 0.0 | 1.7 | 0.03 | 0.51 | 0.03 | 86 | 1014.0 |
| 20260904182535 | 87 | 0 | 0.0 | 0.0 | 0.03 | 0.51 | 0.03 | 89 | 1014.0 |
| 20260904182024 | 85 | 0 | 0.0 | 0.9 | 0.03 | 0.51 | 0.03 | 93 | 1014.1 |
| 20260904181549 | 84 | 0 | 0.0 | 3.5 | 0.03 | 0.51 | 0.03 | 90 | 1014.2 |
| 20260904181021 | 85 | 0 | 0.9 | 4.3 | 0.03 | 0.51 | 0.03 | 88 | 1014.3 |
| 20260904180524 | 85 | 78 | 0.9 | 4.3 | 0.03 | 0.51 | 0.03 | 88 | 1014.5 |
| 20260904180048 | 87 | 147 | 1.7 | 6.1 | 0.00 | 0.48 | 0.00 | 81 | 1014.4 |
| 20260904175520 | 87 | 110 | 1.7 | 6.1 | 0.00 | 0.48 | 0.00 | 77 | 1014.5 |
| 20260904175025 | 89 | 128 | 0.9 | 4.3 | 0.00 | 0.48 | 0.00 | 76 | 1014.5 |
| 20260904174542 | 89 | 0 | 0.9 | 5.2 | 0.00 | 0.48 | 0.00 | 78 | 1014.6 |
| 20260904174022 | 88 | 0 | 1.7 | 5.2 | 0.00 | 0.48 | 0.00 | 78 | 1014.7 |
| 20260904173525 | 89 | 162 | 1.7 | 6.1 | 0.00 | 0.48 | 0.00 | 75 | 1014.6 |
| 20260904173100 | 89 | 165 | 1.7 | 7.0 | 0.00 | 0.48 | 0.00 | 77 | 1014.8 |
| 20260904172524 | 87 | 165 | 2.6 | 7.0 | 0.00 | 0.48 | 0.00 | 79 | 1014.8 |
| 20260904172023 | 87 | 95 | 0.9 | 6.1 | 0.00 | 0.48 | 0.00 | 79 | 1014.9 |
| 20260904171546 | 88 | 0 | 1.7 | 6.1 | 0.00 | 0.48 | 0.00 | 81 | 1014.9 |
| 20260904171022 | 87 | 128 | 1.7 | 5.2 | 0.00 | 0.48 | 0.00 | 78 | 1014.8 |
| 20260904170522 | 89 | 192 | 1.7 | 5.2 | 0.00 | 0.48 | 0.00 | 74 | 1015.0 |
| 20260904170041 | 90 | 0 | 0.9 | 6.1 | 0.00 | 0.48 | 0.00 | 75 | 1015.0 |
| 20260904165524 | 89 | 126 | 1.7 | 6.1 | 0.00 | 0.48 | 0.00 | 78 | 1015.0 |
| 20260904165025 | 88 | 157 | 1.7 | 5.2 | 0.00 | 0.48 | 0.00 | 80 | 1015.1 |
| 20260904164540 | 88 | 160 | 0.9 | 4.3 | 0.00 | 0.48 | 0.00 | 76 | 1015.2 |
| 20260904164024 | 90 | 188 | 0.9 | 5.2 | 0.00 | 0.48 | 0.00 | 75 | 1015.4 |
| 20260904163524 | 90 | 148 | 0.9 | 5.2 | 0.00 | 0.48 | 0.00 | 77 | 1015.4 |
| 20260904163046 | 90 | 229 | 0.0 | 3.5 | 0.00 | 0.48 | 0.00 | 80 | 1015.4 |
| 20260904162523 | 89 | 112 | 0.9 | 4.3 | 0.00 | 0.48 | 0.00 | 78 | 1015.5 |
| 20260904162023 | 89 | 169 | 1.7 | 5.2 | 0.00 | 0.48 | 0.00 | 76 | 1015.5 |
| 20260904161540 | 89 | 135 | 0.9 | 5.2 | 0.00 | 0.48 | 0.00 | 81 | 1015.6 |
| 20260904161028 | 87 | 261 | 0.9 | 3.5 | 0.00 | 0.48 | 0.00 | 77 | 1015.6 |
| 20260904160525 | 87 | 241 | 0.0 | 3.5 | 0.00 | 0.48 | 0.00 | 80 | 1015.6 |
| 20260904160047 | 85 | 0 | 0.0 | 5.2 | 0.00 | 0.48 | 0.00 | 81 | 1015.7 |
| 20260904155525 | 86 | 223 | 1.7 | 5.2 | 0.00 | 0.48 | 0.00 | 79 | 1015.7 |
| 20260904155024 | 85 | 0 | 0.0 | 4.3 | 0.00 | 0.48 | 0.00 | 83 | 1015.7 |
| 20260904154550 | 85 | 0 | 0.9 | 7.0 | 0.00 | 0.48 | 0.00 | 81 | 1015.9 |
| 20260904154024 | 86 | 126 | 1.7 | 7.0 | 0.00 | 0.48 | 0.00 | 81 | 1015.8 |
| 20260904153525 | 87 | 161 | 2.6 | 7.8 | 0.00 | 0.48 | 0.00 | 82 | 1015.7 |
| 20260904153047 | 86 | 0 | 1.7 | 7.8 | 0.00 | 0.48 | 0.00 | 81 | 1015.6 |
| 20260904152523 | 86 | 126 | 2.6 | 6.1 | 0.00 | 0.48 | 0.00 | 83 | 1015.5 |
| 20260904152022 | 86 | 131 | 0.9 | 5.2 | 0.00 | 0.48 | 0.00 | 83 | 1015.5 |
| 20260904151543 | 86 | 0 | 1.7 | 5.2 | 0.00 | 0.48 | 0.00 | 85 | 1015.5 |
| 20260904151018 | 86 | 288 | 0.9 | 6.1 | 0.00 | 0.48 | 0.00 | 84 | 1015.4 |
| 20260904150519 | 86 | 177 | 1.7 | 6.1 | 0.00 | 0.48 | 0.00 | 85 | 1015.4 |
| 20260904150050 | 85 | 182 | 0.9 | 7.0 | 0.00 | 0.48 | 0.00 | 83 | 1015.2 |
| 20260904145523 | 85 | 171 | 2.6 | 7.0 | 0.00 | 0.48 | 0.00 | 86 | 1015.2 |
| 20260904145023 | 85 | 164 | 0.9 | 5.2 | 0.00 | 0.48 | 0.00 | 87 | 1015.2 |
| 20260904144547 | 85 | 167 | 0.9 | 7.8 | 0.00 | 0.48 | 0.00 | 88 | 1015.2 |
| 20260904144024 | 84 | 153 | 0.9 | 7.8 | 0.00 | 0.48 | 0.00 | 88 | 1015.3 |
| 20260904143528 | 84 | 0 | 0.9 | 6.1 | 0.00 | 0.48 | 0.00 | 87 | 1015.3 |
| 20260904143044 | 83 | 163 | 1.7 | 6.1 | 0.00 | 0.48 | 0.00 | 88 | 1015.2 |
| 20260904142524 | 84 | 0 | 0.9 | 3.5 | 0.00 | 0.48 | 0.00 | 89 | 1015.3 |
| 20260904142024 | 83 | 0 | 0.0 | 6.1 | 0.00 | 0.48 | 0.00 | 88 | 1015.2 |
| 20260904141551 | 83 | 0 | 1.7 | 6.1 | 0.00 | 0.48 | 0.00 | 90 | 1015.2 |
| 20260904141032 | 82 | 171 | 1.7 | 4.3 | 0.00 | 0.48 | 0.00 | 90 | 1015.3 |
| 20260904140527 | 82 | 109 | 0.9 | 4.3 | 0.00 | 0.48 | 0.00 | 91 | 1015.2 |
| 20260904135524 | 82 | 0 | 0.9 | 5.2 | 0.00 | 0.48 | 0.00 | 93 | 1015.3 |
| 20260904135025 | 81 | 85 | 1.7 | 5.2 | 0.00 | 0.48 | 0.00 | 93 | 1015.2 |
| 20260904134609 | 81 | 144 | 1.7 | 5.2 | 0.00 | 0.48 | 0.00 | 93 | 1015.3 |
| 20260904134024 | 81 | 71 | 1.7 | 5.2 | 0.00 | 0.48 | 0.00 | 93 | 1015.2 |
| 20260904133520 | 80 | 167 | 0.9 | 5.2 | 0.00 | 0.48 | 0.00 | 94 | 1015.2 |
| 20260904133046 | 80 | 0 | 1.7 | 5.2 | 0.00 | 0.48 | 0.00 | 95 | 1015.2 |
| 20260904132523 | 80 | 0 | 0.0 | 4.3 | 0.00 | 0.48 | 0.00 | 95 | 1015.1 |
| 20260904132020 | 79 | 143 | 1.7 | 4.3 | 0.00 | 0.48 | 0.00 | 95 | 1015.0 |
| 20260904131541 | 79 | 125 | 0.9 | 3.5 | 0.00 | 0.48 | 0.00 | 96 | 1015.0 |
| 20260904131024 | 79 | 118 | 1.7 | 4.3 | 0.00 | 0.48 | 0.00 | 96 | 1014.9 |
| 20260904130524 | 78 | 120 | 1.7 | 4.3 | 0.00 | 0.48 | 0.00 | 96 | 1015.0 |
| 20260904130048 | 78 | 180 | 0.9 | 3.5 | 0.00 | 0.48 | 0.00 | 97 | 1015.0 |
| 20260904125529 | 78 | 155 | 1.7 | 5.2 | 0.00 | 0.48 | 0.00 | 97 | 1014.9 |
| 20260904125024 | 77 | 124 | 2.6 | 5.2 | 0.00 | 0.48 | 0.00 | 97 | 1014.9 |
| 20260904124543 | 77 | 147 | 1.7 | 4.3 | 0.00 | 0.48 | 0.00 | 97 | 1014.9 |
| 20260904124019 | 77 | 148 | 0.9 | 3.5 | 0.00 | 0.48 | 0.00 | 97 | 1014.9 |
| 20260904123525 | 77 | 130 | 0.9 | 2.6 | 0.00 | 0.48 | 0.00 | 97 | 1014.8 |
| 20260904123041 | 77 | 83 | 0.9 | 3.5 | 0.00 | 0.48 | 0.00 | 97 | 1015.0 |
| 20260904122526 | 76 | 86 | 0.0 | 3.5 | 0.00 | 0.48 | 0.00 | 97 | 1014.9 |
| 20260904122023 | 76 | 0 | 0.9 | 3.5 | 0.00 | 0.48 | 0.00 | 97 | 1014.8 |
| 20260904121552 | 76 | 127 | 1.7 | 3.5 | 0.00 | 0.48 | 0.00 | 97 | 1014.5 |
| 20260904121025 | 76 | 120 | 0.9 | 2.6 | 0.00 | 0.48 | 0.00 | 97 | 1014.5 |
| 20260904120526 | 75 | 105 | 0.9 | 2.6 | 0.00 | 0.48 | 0.00 | 97 | 1014.5 |
| 20260904120050 | 75 | 108 | 0.9 | 1.7 | 0.00 | 0.48 | 0.00 | 97 | 1014.4 |
| 20260904115525 | 75 | 0 | 0.0 | 0.0 | 0.00 | 0.48 | 0.00 | 97 | 1014.4 |
| 20260904115024 | 75 | 0 | 0.0 | 0.0 | 0.00 | 0.48 | 0.00 | 97 | 1014.3 |
| 20260904114544 | 74 | 0 | 0.0 | 0.0 | 0.00 | 0.48 | 0.00 | 97 | 1014.4 |
| 20260904114028 | 74 | 0 | 0.0 | 0.0 | 0.00 | 0.48 | 0.00 | 97 | 1014.3 |
| 20260904113523 | 74 | 0 | 0.0 | 0.0 | 0.00 | 0.48 | 0.00 | 97 | 1014.3 |
| 20260904113042 | 74 | 0 | 0.0 | 0.0 | 0.00 | 0.48 | 0.00 | 97 | 1014.1 |
| 20260904112520 | 74 | 0 | 0.0 | 0.0 | 0.00 | 0.48 | 0.00 | 97 | 1014.1 |
| 20260904112024 | 74 | 0 | 0.0 | 0.0 | 0.00 | 0.48 | 0.00 | 97 | 1014.1 |
| 20260904111543 | 74 | 0 | 0.0 | 0.0 | 0.00 | 0.48 | 0.00 | 97 | 1014.2 |
| 20260904111024 | 74 | 0 | 0.0 | 0.0 | 0.00 | 0.48 | 0.00 | 97 | 1014.2 |
| 20260904110525 | 74 | 0 | 0.0 | 0.0 | 0.00 | 0.48 | 0.00 | 97 | 1014.2 |
| 20260904110047 | 74 | 0 | 0.0 | 0.0 | 0.00 | 0.48 | 0.00 | 97 | 1014.1 |
| 20260904105525 | 74 | 0 | 0.0 | 0.0 | 0.00 | 0.48 | 0.00 | 97 | 1014.1 |
| 20260904105024 | 74 | 0 | 0.0 | 0.0 | 0.00 | 0.48 | 0.00 | 97 | 1014.0 |
| 20260904104544 | 73 | 0 | 0.0 | 0.0 | 0.00 | 0.48 | 0.00 | 97 | 1013.8 |
| 20260904104019 | 73 | 0 | 0.0 | 0.0 | 0.00 | 0.48 | 0.00 | 97 | 1013.8 |
| 20260904103526 | 73 | 0 | 0.0 | 0.0 | 0.00 | 0.48 | 0.00 | 97 | 1013.9 |
| 20260904103041 | 73 | 0 | 0.0 | 0.0 | 0.00 | 0.48 | 0.00 | 97 | 1013.8 |
| 20260904102525 | 73 | 0 | 0.0 | 0.0 | 0.00 | 0.48 | 0.00 | 97 | 1013.8 |
| 20260904102023 | 73 | 0 | 0.0 | 0.0 | 0.00 | 0.48 | 0.00 | 97 | 1013.8 |
| 20260904101539 | 73 | 0 | 0.0 | 0.0 | 0.00 | 0.48 | 0.00 | 97 | 1013.6 |
| 20260904101024 | 73 | 0 | 0.0 | 0.0 | 0.00 | 0.48 | 0.00 | 97 | 1013.6 |
| 20260904100524 | 74 | 0 | 0.0 | 0.0 | 0.00 | 0.48 | 0.00 | 97 | 1013.6 |
| 20260904100049 | 73 | 0 | 0.0 | 0.0 | 0.00 | 0.48 | 0.00 | 97 | 1013.6 |
| 20260904095524 | 74 | 0 | 0.0 | 0.0 | 0.00 | 0.48 | 0.00 | 96 | 1013.6 |
| 20260904095021 | 74 | 0 | 0.0 | 0.0 | 0.00 | 0.48 | 0.00 | 97 | 1013.6 |
| 20260904094552 | 74 | 0 | 0.0 | 0.0 | 0.00 | 0.48 | 0.00 | 96 | 1013.5 |
| 20260904094019 | 74 | 0 | 0.0 | 0.0 | 0.00 | 0.48 | 0.00 | 97 | 1013.5 |
| 20260904093519 | 74 | 0 | 0.0 | 0.0 | 0.00 | 0.48 | 0.00 | 96 | 1013.4 |
| 20260904093039 | 74 | 0 | 0.0 | 0.0 | 0.00 | 0.48 | 0.00 | 96 | 1013.5 |
| 20260904092525 | 74 | 0 | 0.0 | 0.0 | 0.00 | 0.48 | 0.00 | 96 | 1013.5 |
| 20260904092024 | 74 | 0 | 0.0 | 0.0 | 0.00 | 0.48 | 0.00 | 96 | 1013.4 |
| 20260904091547 | 74 | 0 | 0.0 | 0.0 | 0.00 | 0.48 | 0.00 | 96 | 1013.4 |
| 20260904091021 | 74 | 0 | 0.0 | 0.0 | 0.00 | 0.48 | 0.00 | 96 | 1013.3 |
| 20260904090521 | 74 | 0 | 0.0 | 0.0 | 0.00 | 0.48 | 0.00 | 96 | 1013.3 |
| 20260904090053 | 74 | 0 | 0.0 | 0.0 | 0.00 | 0.48 | 0.00 | 96 | 1013.3 |
| 20260904085523 | 74 | 0 | 0.0 | 0.0 | 0.00 | 0.48 | 0.00 | 96 | 1013.5 |
| 20260904085024 | 74 | 0 | 0.0 | 0.0 | 0.00 | 0.48 | 0.00 | 96 | 1013.4 |
| 20260904084546 | 74 | 0 | 0.0 | 0.0 | 0.00 | 0.48 | 0.00 | 96 | 1013.3 |
| 20260904084025 | 74 | 0 | 0.0 | 0.0 | 0.00 | 0.48 | 0.00 | 96 | 1013.3 |
| 20260904083526 | 74 | 0 | 0.0 | 0.0 | 0.00 | 0.48 | 0.00 | 96 | 1013.3 |
| 20260904083123 | 74 | 0 | 0.0 | 0.0 | 0.00 | 0.48 | 0.00 | 96 | 1013.2 |
| 20260904082524 | 74 | 0 | 0.0 | 0.0 | 0.00 | 0.48 | 0.00 | 96 | 1013.3 |
| 20260904082023 | 74 | 0 | 0.0 | 0.0 | 0.00 | 0.48 | 0.00 | 96 | 1013.3 |
| 20260904081543 | 74 | 0 | 0.0 | 0.0 | 0.00 | 0.48 | 0.00 | 96 | 1013.3 |
| 20260904081023 | 74 | 0 | 0.0 | 0.0 | 0.00 | 0.48 | 0.00 | 96 | 1013.3 |
| 20260904080521 | 74 | 0 | 0.0 | 0.0 | 0.00 | 0.48 | 0.00 | 96 | 1013.3 |
| 20260904080045 | 74 | 0 | 0.0 | 0.0 | 0.00 | 0.48 | 0.00 | 96 | 1013.3 |
| 20260904075522 | 74 | 0 | 0.0 | 0.0 | 0.00 | 0.48 | 0.00 | 96 | 1013.3 |
| 20260904075027 | 74 | 0 | 0.0 | 0.0 | 0.00 | 0.48 | 0.00 | 96 | 1013.2 |
| 20260904074541 | 74 | 0 | 0.0 | 0.0 | 0.00 | 0.48 | 0.00 | 96 | 1013.3 |
| 20260904074025 | 74 | 0 | 0.0 | 0.0 | 0.00 | 0.48 | 0.00 | 96 | 1013.3 |
| 20260904073524 | 74 | 0 | 0.0 | 0.0 | 0.00 | 0.48 | 0.00 | 96 | 1013.2 |
| 20260904073040 | 74 | 0 | 0.0 | 0.0 | 0.00 | 0.48 | 0.00 | 96 | 1013.2 |
| 20260904072523 | 74 | 0 | 0.0 | 0.0 | 0.00 | 0.48 | 0.00 | 96 | 1013.2 |
| 20260904072030 | 74 | 0 | 0.0 | 0.0 | 0.00 | 0.48 | 0.00 | 96 | 1013.3 |
| 20260904071601 | 74 | 0 | 0.0 | 0.0 | 0.00 | 0.48 | 0.00 | 96 | 1013.1 |
| 20260904071020 | 74 | 0 | 0.0 | 0.0 | 0.00 | 0.48 | 0.00 | 96 | 1013.1 |
| 20260904070524 | 74 | 0 | 0.0 | 0.0 | 0.00 | 0.48 | 0.00 | 96 | 1013.2 |
| 20260904070108 | 74 | 0 | 0.0 | 0.0 | 0.00 | 0.48 | 0.00 | 96 | 1013.1 |
| 20260904065521 | 74 | 0 | 0.0 | 0.0 | 0.00 | 0.48 | 0.00 | 96 | 1013.3 |
| 20260904065028 | 74 | 0 | 0.0 | 0.0 | 0.00 | 0.48 | 0.00 | 96 | 1013.3 |
| 20260904064550 | 74 | 0 | 0.0 | 0.0 | 0.00 | 0.48 | 0.00 | 96 | 1013.1 |
| 20260904064021 | 74 | 0 | 0.0 | 0.0 | 0.00 | 0.48 | 0.00 | 96 | 1013.1 |
| 20260904063524 | 75 | 0 | 0.0 | 0.0 | 0.00 | 0.48 | 0.00 | 96 | 1013.1 |
| 20260904063100 | 75 | 0 | 0.0 | 0.0 | 0.00 | 0.48 | 0.00 | 96 | 1013.2 |
| 20260904062524 | 75 | 0 | 0.0 | 0.0 | 0.00 | 0.48 | 0.00 | 96 | 1013.3 |
| 20260904062019 | 75 | 0 | 0.0 | 0.0 | 0.00 | 0.48 | 0.00 | 96 | 1013.4 |
| 20260904061542 | 75 | 0 | 0.0 | 0.0 | 0.00 | 0.48 | 0.00 | 96 | 1013.6 |
| 20260904061019 | 75 | 0 | 0.0 | 0.0 | 0.00 | 0.48 | 0.00 | 96 | 1013.6 |
| 20260904060522 | 75 | 0 | 0.0 | 0.0 | 0.00 | 0.48 | 0.00 | 96 | 1013.7 |
| 20260904060042 | 75 | 0 | 0.0 | 0.0 | 0.00 | 0.48 | 0.00 | 96 | 1013.6 |
| 20260904055525 | 75 | 0 | 0.0 | 0.0 | 0.00 | 0.48 | 0.00 | 96 | 1013.7 |
| 20260904055025 | 75 | 0 | 0.0 | 0.0 | 0.00 | 0.48 | 0.00 | 96 | 1013.7 |
| 20260904054551 | 75 | 0 | 0.0 | 1.7 | 0.00 | 0.48 | 0.00 | 96 | 1013.9 |
| 20260904054023 | 75 | 0 | 0.0 | 1.7 | 0.00 | 0.48 | 0.00 | 96 | 1013.9 |
| 20260904053522 | 75 | 0 | 0.0 | 1.7 | 0.00 | 0.48 | 0.00 | 96 | 1013.8 |
| 20260904053055 | 75 | 0 | 0.0 | 0.0 | 0.00 | 0.48 | 0.00 | 96 | 1013.9 |
| 20260904052523 | 75 | 0 | 0.0 | 0.0 | 0.00 | 0.48 | 0.00 | 96 | 1013.9 |
| 20260904052022 | 75 | 0 | 0.0 | 0.0 | 0.00 | 0.48 | 0.00 | 96 | 1014.0 |
| 20260904051544 | 75 | 0 | 0.0 | 0.0 | 0.00 | 0.48 | 0.00 | 96 | 1014.0 |
| 20260904051023 | 75 | 0 | 0.0 | 0.0 | 0.00 | 0.48 | 0.00 | 96 | 1013.9 |
| 20260904050521 | 75 | 0 | 0.0 | 0.0 | 0.00 | 0.48 | 0.00 | 96 | 1014.1 |
| 20260904050049 | 75 | 0 | 0.0 | 0.0 | 0.00 | 0.48 | 0.00 | 96 | 1014.1 |
| 20260904045525 | 75 | 0 | 0.0 | 0.0 | 0.00 | 0.49 | 0.00 | 96 | 1014.1 |
| 20260904045025 | 75 | 0 | 0.0 | 0.0 | 0.00 | 0.49 | 0.00 | 96 | 1014.1 |
| 20260904044546 | 75 | 0 | 0.0 | 0.0 | 0.00 | 0.49 | 0.00 | 96 | 1014.1 |
| 20260904044023 | 75 | 0 | 0.0 | 0.0 | 0.00 | 0.49 | 0.00 | 96 | 1014.1 |
| 20260904043519 | 75 | 0 | 0.0 | 0.0 | 0.00 | 0.49 | 0.00 | 96 | 1014.1 |
| 20260904043056 | 75 | 0 | 0.0 | 0.0 | 0.00 | 0.49 | 0.00 | 96 | 1014.1 |
| 20260904042525 | 75 | 0 | 0.0 | 0.0 | 0.00 | 0.49 | 0.00 | 96 | 1014.1 |
| 20260904042024 | 75 | 0 | 0.0 | 0.0 | 0.00 | 0.49 | 0.00 | 96 | 1014.1 |
| 20260904041546 | 75 | 0 | 0.0 | 0.0 | 0.00 | 0.49 | 0.00 | 96 | 1014.2 |
| 20260904041021 | 75 | 0 | 0.0 | 0.0 | 0.00 | 0.49 | 0.00 | 96 | 1014.1 |
| 20260904040522 | 75 | 0 | 0.0 | 1.7 | 0.00 | 0.49 | 0.00 | 96 | 1014.1 |
| 20260904035525 | 75 | 0 | 0.0 | 2.6 | 0.00 | 0.49 | 0.49 | 96 | 1014.1 |
| 20260904035022 | 75 | 101 | 0.9 | 2.6 | 0.00 | 0.49 | 0.49 | 96 | 1013.9 |
| 20260904034541 | 75 | 99 | 0.9 | 2.6 | 0.00 | 0.49 | 0.49 | 96 | 1014.0 |
| 20260904034019 | 75 | 109 | 0.9 | 2.6 | 0.00 | 0.49 | 0.49 | 96 | 1014.1 |
| 20260904033520 | 76 | 102 | 0.0 | 2.6 | 0.00 | 0.49 | 0.49 | 96 | 1014.1 |
| 20260904033044 | 76 | 0 | 0.0 | 0.0 | 0.00 | 0.49 | 0.49 | 96 | 1014.1 |
| 20260904032523 | 76 | 0 | 0.0 | 0.0 | 0.00 | 0.49 | 0.49 | 96 | 1014.1 |
| 20260904032021 | 76 | 0 | 0.0 | 0.9 | 0.00 | 0.49 | 0.49 | 96 | 1014.1 |
| 20260904031552 | 76 | 0 | 0.0 | 1.7 | 0.00 | 0.49 | 0.49 | 96 | 1014.1 |
| 20260904031024 | 76 | 0 | 0.0 | 1.7 | 0.00 | 0.49 | 0.49 | 96 | 1014.2 |
| 20260904030524 | 76 | 0 | 0.0 | 1.7 | 0.00 | 0.49 | 0.49 | 96 | 1014.2 |
| 20260904030043 | 76 | 0 | 0.0 | 2.6 | 0.00 | 0.49 | 0.49 | 96 | 1014.1 |
| 20260904025524 | 76 | 118 | 0.9 | 2.6 | 0.00 | 0.49 | 0.49 | 96 | 1014.1 |
| 20260904025022 | 76 | 136 | 0.9 | 2.6 | 0.00 | 0.49 | 0.49 | 96 | 1014.1 |
| 20260904024554 | 76 | 101 | 0.9 | 2.6 | 0.00 | 0.49 | 0.49 | 96 | 1014.1 |
| 20260904024018 | 76 | 107 | 0.9 | 4.3 | 0.00 | 0.49 | 0.49 | 96 | 1014.1 |
| 20260904023524 | 76 | 128 | 1.7 | 4.3 | 0.01 | 0.49 | 0.49 | 96 | 1014.0 |
| 20260904023049 | 76 | 121 | 1.7 | 3.5 | 0.01 | 0.49 | 0.49 | 96 | 1014.0 |
| 20260904022525 | 76 | 96 | 1.7 | 4.3 | 0.01 | 0.49 | 0.49 | 96 | 1013.9 |
| 20260904022024 | 76 | 0 | 0.9 | 4.3 | 0.01 | 0.49 | 0.49 | 96 | 1013.9 |
| 20260904021547 | 76 | 119 | 1.7 | 4.3 | 0.01 | 0.49 | 0.49 | 96 | 1013.8 |
| 20260904021024 | 76 | 115 | 0.9 | 2.6 | 0.01 | 0.49 | 0.49 | 96 | 1013.9 |
| 20260904020524 | 76 | 74 | 0.9 | 2.6 | 0.01 | 0.49 | 0.49 | 96 | 1013.8 |
| 20260904020046 | 76 | 82 | 0.9 | 2.6 | 0.01 | 0.49 | 0.49 | 96 | 1013.7 |
| 20260904015524 | 76 | 108 | 0.9 | 2.6 | 0.02 | 0.52 | 0.49 | 96 | 1013.8 |
| 20260904015022 | 76 | 0 | 0.9 | 3.5 | 0.02 | 0.52 | 0.49 | 96 | 1013.7 |
| 20260904014557 | 76 | 109 | 0.9 | 3.5 | 0.03 | 0.52 | 0.49 | 96 | 1013.7 |
| 20260904014025 | 76 | 108 | 0.9 | 2.6 | 0.03 | 0.52 | 0.49 | 96 | 1013.7 |
| 20260904013525 | 76 | 120 | 0.0 | 2.6 | 0.03 | 0.51 | 0.48 | 96 | 1013.7 |
| 20260904013048 | 76 | 76 | 0.9 | 2.6 | 0.03 | 0.51 | 0.48 | 96 | 1013.7 |
| 20260904012524 | 76 | 69 | 0.9 | 2.6 | 0.03 | 0.51 | 0.48 | 96 | 1013.7 |
| 20260904012024 | 76 | 91 | 0.9 | 3.5 | 0.03 | 0.51 | 0.48 | 96 | 1013.6 |
| 20260904011546 | 76 | 65 | 1.7 | 3.5 | 0.03 | 0.51 | 0.48 | 95 | 1013.4 |
| 20260904011024 | 76 | 93 | 1.7 | 2.6 | 0.04 | 0.51 | 0.48 | 95 | 1013.4 |
| 20260904010524 | 76 | 98 | 0.9 | 2.6 | 0.05 | 0.51 | 0.48 | 95 | 1013.4 |
| 20260904010050 | 76 | 98 | 0.9 | 2.6 | 0.06 | 0.51 | 0.48 | 95 | 1013.4 |
| 20260904005523 | 76 | 79 | 0.9 | 2.6 | 0.11 | 0.50 | 0.47 | 95 | 1013.3 |
| 20260904005024 | 76 | 0 | 0.0 | 1.7 | 0.21 | 0.49 | 0.46 | 95 | 1013.3 |
| 20260904004544 | 77 | 0 | 0.0 | 0.9 | 0.30 | 0.49 | 0.46 | 95 | 1013.4 |
| 20260904004023 | 76 | 0 | 0.0 | 0.9 | 0.45 | 0.49 | 0.46 | 95 | 1013.4 |
| 20260904003520 | 76 | 0 | 0.0 | 2.6 | 0.44 | 0.48 | 0.45 | 95 | 1013.4 |
| 20260904003043 | 76 | 89 | 0.0 | 3.5 | 0.44 | 0.48 | 0.45 | 95 | 1013.3 |
| 20260904002524 | 76 | 109 | 0.9 | 3.5 | 0.44 | 0.48 | 0.45 | 95 | 1013.4 |
| 20260904002026 | 76 | 123 | 0.0 | 6.1 | 0.44 | 0.48 | 0.45 | 95 | 1013.5 |
| 20260904001551 | 76 | 100 | 0.9 | 6.1 | 0.43 | 0.47 | 0.44 | 94 | 1013.5 |
| 20260904001024 | 76 | 116 | 1.7 | 6.1 | 0.43 | 0.47 | 0.44 | 94 | 1013.6 |
| 20260904000524 | 76 | 155 | 1.7 | 8.7 | 0.42 | 0.46 | 0.43 | 94 | 1013.6 |
| 20260904000052 | 76 | 202 | 3.5 | 8.7 | 0.40 | 0.44 | 0.41 | 93 | 1013.6 |
| 20260903235526 | 77 | 142 | 2.6 | 8.7 | 0.34 | 0.38 | 0.35 | 92 | 1013.7 |
| 20260903235024 | 77 | 167 | 0.9 | 8.7 | 0.23 | 0.27 | 0.24 | 91 | 1013.8 |
| 20260903234541 | 79 | 301 | 1.7 | 15.6 | 0.13 | 0.17 | 0.14 | 89 | 1013.8 |
| 20260903234025 | 81 | 104 | 7.8 | 15.6 | 0.00 | 0.04 | 0.01 | 85 | 1013.8 |
| 20260903233529 | 82 | 132 | 5.2 | 11.3 | 0.00 | 0.04 | 0.01 | 85 | 1013.7 |
| 20260903233041 | 83 | 80 | 2.6 | 7.0 | 0.00 | 0.04 | 0.01 | 87 | 1013.3 |
| 20260903232524 | 83 | 112 | 2.6 | 7.8 | 0.00 | 0.04 | 0.01 | 86 | 1013.2 |
| 20260903232024 | 83 | 78 | 2.6 | 8.7 | 0.00 | 0.04 | 0.01 | 85 | 1013.1 |
| 20260903231548 | 83 | 84 | 3.5 | 8.7 | 0.00 | 0.04 | 0.01 | 85 | 1013.0 |
| 20260903231024 | 83 | 83 | 4.3 | 7.8 | 0.00 | 0.04 | 0.01 | 85 | 1013.0 |
| 20260903230521 | 84 | 80 | 3.5 | 7.8 | 0.00 | 0.04 | 0.01 | 85 | 1013.1 |
| 20260903230047 | 84 | 115 | 2.6 | 6.1 | 0.00 | 0.04 | 0.01 | 84 | 1013.1 |
| 20260903225524 | 84 | 67 | 3.5 | 7.0 | 0.00 | 0.04 | 0.01 | 83 | 1013.0 |
| 20260903225024 | 84 | 61 | 3.5 | 7.0 | 0.00 | 0.04 | 0.01 | 82 | 1012.8 |
| 20260903224540 | 85 | 114 | 2.6 | 7.0 | 0.00 | 0.04 | 0.01 | 82 | 1012.8 |
| 20260903224024 | 85 | 83 | 2.6 | 6.1 | 0.00 | 0.04 | 0.01 | 80 | 1012.5 |
| 20260903223524 | 85 | 78 | 1.7 | 3.5 | 0.00 | 0.04 | 0.01 | 79 | 1012.7 |
| 20260903223043 | 86 | 82 | 0.9 | 3.5 | 0.00 | 0.04 | 0.01 | 79 | 1012.7 |
| 20260903222522 | 86 | 74 | 0.9 | 3.5 | 0.00 | 0.04 | 0.01 | 78 | 1012.7 |
| 20260903222024 | 86 | 55 | 1.7 | 3.5 | 0.00 | 0.04 | 0.01 | 77 | 1012.5 |
| 20260903221542 | 86 | 64 | 0.9 | 3.5 | 0.00 | 0.04 | 0.01 | 79 | 1012.4 |
| 20260903221018 | 86 | 67 | 0.9 | 3.5 | 0.00 | 0.04 | 0.01 | 77 | 1012.4 |
| 20260903220524 | 86 | 59 | 0.9 | 3.5 | 0.00 | 0.04 | 0.01 | 77 | 1012.4 |
| 20260903220051 | 87 | 71 | 1.7 | 3.5 | 0.00 | 0.04 | 0.01 | 76 | 1012.4 |
| 20260903215525 | 86 | 77 | 1.7 | 4.3 | 0.00 | 0.04 | 0.01 | 77 | 1012.2 |
| 20260903215025 | 86 | 82 | 1.7 | 4.3 | 0.00 | 0.04 | 0.01 | 79 | 1012.4 |
| 20260903214604 | 86 | 59 | 1.7 | 5.2 | 0.00 | 0.04 | 0.01 | 79 | 1012.4 |
| 20260903214024 | 86 | 69 | 1.7 | 7.0 | 0.00 | 0.04 | 0.01 | 79 | 1012.3 |
| 20260903213523 | 87 | 63 | 2.6 | 7.0 | 0.00 | 0.04 | 0.01 | 79 | 1012.1 |
| 20260903213047 | 87 | 56 | 2.6 | 7.0 | 0.00 | 0.04 | 0.01 | 79 | 1011.8 |
| 20260903212528 | 86 | 112 | 3.5 | 7.0 | 0.00 | 0.04 | 0.01 | 78 | 1011.8 |
| 20260903212024 | 87 | 53 | 2.6 | 7.0 | 0.00 | 0.04 | 0.01 | 78 | 1011.8 |
| 20260903211542 | 87 | 76 | 3.5 | 7.0 | 0.00 | 0.04 | 0.01 | 76 | 1011.8 |
| 20260903211025 | 86 | 38 | 2.6 | 6.1 | 0.00 | 0.04 | 0.01 | 79 | 1011.8 |
| 20260903210525 | 87 | 88 | 1.7 | 5.2 | 0.00 | 0.04 | 0.01 | 79 | 1011.6 |